Zurück zum Katalog

FENGYUN 1C DEB

AktivPO
NORAD 37421·DEBRIS·🇨🇳 China

Gestartet May 10, 1999 von Taiyuan Satellite Launch Center

Loading…

Nächste Überflüge (nächste 24 Stunden)

TLE

AktuellSource: Space-Track

Epoche: Sep 11, 2026, 05:52 UTC

1 37421U 99025EGP 26254.24456431  .00000241  00000-0  30632-3 0  9994
2 37421  98.9081 181.9974 0407878 120.8513 243.3409 13.40755122645973

Verfolge FENGYUN 1C DEB in Echtzeit mit AllMySat

Download on the App Store